sat.trackr.live / text

‹ back to catalog

STARLINK-11086 [DTC]

NORAD 60043 · 2024-112F

PAYLOAD ACTIVE UNKNOWN

§ Identity

Operator
Country
US
Launch date
2024-06-08
Launch site
AFWTR
Launch vehicle
Mass (kg)
RCS (m²)

Purposes: comms

External: N2YO · Heavens-Above · Gunter

§ Orbital elements

Epoch: 2026-05-24T17:33:31.199040Z

Period
91.73 min
Inclination
53.1581°
Eccentricity
0.0000792
Mean motion
15.69740459 rev/d
Perigee alt
359.1 km
Apogee alt
360.2 km
Semi-major
6,737.8 km
B*
4.4130e-5
RAAN
251.4526°
Arg perigee
88.1984°
Mean anomaly
271.9124°
Rev number
11,292

§ Raw data

STARLINK-11086 [DTC]1 60043U 24112F   26144.73161110  .00004768  00000+0  44130-4 0  99902 60043  53.1581 251.4526 0000792  88.1984 271.9124 15.69740459112920

JSON: /api/v1/satellites/60043 · /tle

For live sub-satellite position, see the globe view (requires WebGL).

§ Visibility from observer

Set your observer location to see the next 7 days of passes ≥ 10°. The values pass through the URL so the page stays shareable.

No JS? Fill the form by hand. The geolocation button needs JavaScript.